Location: Absher
(46.5583°N, 107.9840°W)
Time: 07:08:14
(UTC+00:00)

ISS - Visible Passes

Search period start: 09 December 2022 00:00
Search period end: 19 December 2022 00:00
Orbit: 414 x 420 km, 51.6° (Epoch: 09 December)

Date Brightness Start Highest point End Pass type
(mag) Time Alt. Az. Time Alt. Az. Time Alt. Az.
16 Dec -1.0 14:08:47 10° SSW 14:11:33 24° SE 14:14:19 10° E visible
17 Dec -0.6 13:21:14 10° S 13:23:16 15° SE 13:25:18 10° E visible
18 Dec -3.0 14:07:50 10° SW 14:11:07 56° SSE 14:14:25 10° ENE visible
